Weather in Kovel

Ukraine / Volyn Oblast     51˚12′48″N   24˚42′36″E
temp.,
°C
wind,
m/s
gust,
m/s
humid.,
%
clouds,
%
prec.,
mm/h
press.,
hPa
HPBL,
m
3 december, thu
thu323:00−2˚se478996 0.0 1024518
02:00−2˚sse478698 0.1 1024541
05:00−1˚sse4888100 0.1 1022516
08:00−1˚se498894 0.1 1022465
11:00sse6118375 0.0 1020681
14:00+1˚se6118283 0.0 1019636
17:00se6158657 0.0 1018458
20:00se7158867 0.0 1017523
4 december, fri
fri423:00+1˚se7158772 0.0 1016552
02:00+1˚se7158968 0.0 1015538
05:00+2˚se71689100 0.0 1013581
08:00+2˚se8148996 0.0 1014628
11:00+3˚se8148699 0.0 1013641
14:00+4˚se71486100 0.0 1013664
17:00+4˚se71587100 0.0 1012644
20:00+4˚se7178881 0.0 1012493
5 december, sat
sat523:00+4˚se716903 0.0 1013440
02:00+5˚se717906 0.0 1014489
05:00+5˚se7159127 0.0 1014472
08:00+6˚se6169126 0.0 1015515
11:00+8˚sse7138597 0.0 1016701
14:00+9˚sse8138298 0.0 1017790
17:00+8˚se7158693 0.0 1017631
20:00+7˚se7158664 0.0 1018646
6 december, sun
sun623:00+6˚se8168537 0.0 1019656
02:00+6˚se8158248 0.0 1020664
05:00+5˚se8158450 0.0 1020640
08:00+5˚se9138174 0.0 1021723
11:00+4˚se9147799 0.0 1023714
14:00+3˚se9147397 0.0 1022727
17:00+3˚se917686 0.0 1022740
20:00+2˚se1018643 0.0 1023733
7 december, mon
mon723:00se1019550 0.0 1023707
02:00−1˚se1019540 0.0 1023753
05:00−1˚se1119540 0.0 1022775
08:00−1˚se1019550 0.0 1022806
11:00se1118540 0.0 1023842
14:00+2˚se1016530 0.0 1022974
17:00se917590 0.0 1023811
20:00−1˚se916610 0.0 1023766